Regional Weather Roundup
Issued by NWS Northern Indiana

Home | Current Version | Previous Version | Text Only | Print | Product List | Glossary On
Versions: 1 2 3 4 5 6 7 8 9 10 11 12 13 14 15 16 17 18 19 20 21 22 23 24 25 26 27 28 29 30 31 32 33 34 35 36 37 38 39 40 41 42 43 44 45 46 47 48 49 50
852
ASUS43 KIWX 281010
RWRIWX

KIWX WEATHER ROUNDUP
NATIONAL WEATHER SERVICE NORTHERN INDIANA
600 AM EDT THU JUL 28 2016

NOTE: "FAIR" INDICATES FEW OR NO CLOUDS BELOW 12,000 FEET WITH NO
SIGNIFICANT WEATHER AND/OR OBSTRUCTIONS TO VISIBILITY.

* THESE STATIONS ARE NOT UNDER NWS QUALITY CONTROL. THEY ALSO MAY NOT
  REPORT WEATHER SUCH AS PRECIPITATION OR FOG.

INZ001>027-281100-
NORTHERN INDIANA

CITY           SKY/WX    TMP DP  RH WIND       PRES   REMARKS
GARY*          CLEAR     68  68 100 CALM      29.90F
VALPARAISO     PTCLDY    68  65  90 CALM      29.91S
MICHIGAN CITY* CLEAR     64  64 100 CALM      29.91S
LAPORTE*       PTCLDY   N/A N/A N/A CALM      29.92R
KNOX*          CLOUDY    64  63  94 CALM      29.90S
SOUTH BEND     PTCLDY    67  65  93 CALM      29.91F
GOSHEN         CLOUDY    65  62  90 W3        29.91S
MONTICELLO*    CLOUDY    67  63  87 CALM      29.90S
LOGANSPORT*    CLOUDY    64  63  94 CALM      29.91S
ROCHESTER*     MOCLDY    70  70 100 CALM      29.91S
WARSAW*        CLOUDY    66  64  94 CALM      29.91S
ANGOLA*          N/A     64  64 100 CALM      29.91F
FORT WAYNE     CLOUDY    68  64  87 CALM      29.91R
HUNTINGTON*    CLOUDY    67  66  95 CALM      29.91R
PERU/GRISSOM   CLOUDY    68  67  97 N2        29.89S
MARION*        MOCLDY    65  65  99 CALM      29.91S FOG

$$
INZ028>050-281100-
CENTRAL INDIANA

CITY           SKY/WX    TMP DP  RH WIND       PRES   REMARKS
LAFAYETTE      CLOUDY    67  67 100 CALM      29.90R
KOKOMO*        MOCLDY    66  61  82 CALM      29.91S
MUNCIE*        CLOUDY    70  67  90 NW3       29.91R
INDIANAPOLIS   CLOUDY    74  67  78 S3        29.91R

$$
MIZ043>046-050>051-056>058-064>065-071>073-077>080-281100-
SOUTHWEST LOWER MICHIGAN

CITY           SKY/WX    TMP DP  RH WIND       PRES   REMARKS
BATTLE CREEK   CLOUDY    64  64 100 NW6       29.93S
BENTON HARBOR  CLEAR     66  63  90 CALM      29.90F
COLDWATER*     PTCLDY    64  64 100 CALM      29.92S
HILLSDALE*     MOCLDY    63  62  94 CALM      29.93R
HOLLAND        PTCLDY    64  63  96 CALM      29.92F
GRAND RAPIDS   MOCLDY    66  63  90 CALM      29.93S
KALAMAZOO      CLEAR     67  62  84 N3        29.92S
STURGIS*       MOCLDY    64  63  97 CALM      29.91S
THREE RIVERS*  FAIR      66  63  90 NW3       29.92S

$$
OHZ001>008-015>018-024>025-281100-
NORTHWEST OHIO

CITY           SKY/WX    TMP DP  RH WIND       PRES   REMARKS
DEFIANCE       CLOUDY    70  64  81 CALM      29.90S
FINDLAY        CLOUDY    75  62  64 CALM      29.90R
TOLEDO EXPRESS CLOUDY    69  67  93 N5        29.91R
TOLEDO METCALF CLOUDY    71  66  84 N3        29.91S
LIMA           CLOUDY    68  66  93 CALM      29.90S

$$
AND FOR LAKE MICHIGAN COASTAL AND OPEN LAKE BUOY OBSERVATIONS

STATION/POSITION TEMP    WIND        PRES    VSBY  WAVE
                 AIR SEA DIR/SP/G                  HT/PER
                 (F)     (DEG/KT/KT) (MB)    (MI)  (FT/S)
CALUMET HARBOR    73      CALM  /  1 1011.9F
MICHIGAN CITY     74     160/  3/  3   N/A
BURNS HARBOR      73     210/  4/  5 1013.2S
SAINT JOSEPH      70      30/  1/  2 1013.2S
SOUTH LAKE BUOY   74 75  350/  8/ 10 1012.0F         0
4 MI NW BRIDGMAN  75 77  100/  2/  6 1012.1S         1
MICHIGAN CITY     75 77  190/  4/  4   N/A           0

$$
&&




USA.gov is the U.S. government's official web portal to all federal, state and local government web resources and services.